Regional Weather Roundup
Issued by NWS

Home | Current Version | Previous Version | Text Only | Print | Product List | Glossary On
Versions: 1 2 3 4 5 6 7 8 9 10 11 12 13 14 15 16 17 18 19 20 21 22 23 24 25 26 27 28 29 30 31 32 33 34 35 36 37 38 39 40 41 42 43 44 45 46 47 48 49 50
000
ASUS46 KSEW 191610
RWRWA

WASHINGTON REGIONAL WEATHER ROUNDUP
NATIONAL WEATHER SERVICE SEATTLE WA
800 AM PST THU JAN 19 2017

NOTE:"FAIR" INDICATES FEW OR NO CLOUDS BELOW 12,000 FEET WITH NO
SIGNIFICANT WEATHER AND/OR OBSTRUCTIONS TO VISIBILITY.

WAZ507-509-555>559-191700-
SEATTLE, TACOMA, EVERETT, AND VICINITY

CITY           SKY/WX    TMP DP  RH WIND       PRES   REMARKS
EVERETT        CLOUDY    45  40  82 SE12      29.49R
BOEING FIELD   LGT RAIN  43  40  89 SE8       29.50R
RENTON         LGT RAIN  44  41  89 E6        29.50R
SEATAC AIRPORT LGT RAIN  46  40  79 S12       29.50R
JBLM-MCCHORD   CLOUDY    43  43  99 SE3       29.51R
PUYALLUP         N/A     46  41  81 CALM      29.50S
BREMERTON      MOCLDY    43  41  93 S10G16    29.52R
JBLM-FT LEWIS  MOCLDY    45  43  94 SE9       29.50R
TACOMA NARROWS CLOUDY    45  40  82 S5        29.50R
$$

WAZ001-503-506-510-514-515-191700-
NORTH INTERIOR

CITY           SKY/WX    TMP DP  RH WIND       PRES   REMARKS
BELLINGHAM     LGT RAIN  48  41  76 SE20G31   29.44R
FRIDAY HARBOR  MOCLDY    45  41  86 SE14G21   29.44R
EASTSOUND      MOCLDY    46  41  81 S13G20    29.42R
PORT ANGELES   LGT RAIN  41  40  96 SW7       29.43R
EDIZ HOOK      RAIN      43  42  97 CALM      29.43R
PORT TOWNSEND    N/A    N/A N/A N/A SE14G21   29.44S
NAS WHIDBEY    NOT AVBL
ARLINGTON      NOT AVBL
BURLINGTON     CLOUDY    48  41  76 SE10G16   29.46S
$$

WAZ020-022-039-040-504-511-512-191700-
SOUTHWEST INTERIOR

CITY           SKY/WX    TMP DP  RH WIND       PRES   REMARKS
SHELTON        RAIN      45  42  89 SE7       29.47R FOG
OLYMPIA        MOCLDY    44  42  93 S14       29.49R
CHEHALIS       MOCLDY    45  45 100 S13G22    29.51S
KELSO          CLOUDY    46  42  86 S9        29.57R
VANCOUVER      MOCLDY    37  34  89 SE8       29.60R
SCAPPOOSE, OR  CLOUDY    43  40  89 S5        29.58R
PORTLAND, OR   MOCLDY    37  35  92 SE9       29.61R
$$

WAZ021-516-517-191700-
WASHINGTON COAST

CITY           SKY/WX    TMP DP  RH WIND       PRES   REMARKS
FORKS          LGT RAIN  44  44 100 SE5       29.41R FOG
HOQUIAM        LGT RAIN  46  46 100 S12       29.46R FOG
ASTORIA, OR    LGT RAIN  49  42  77 S14G25    29.49R
$$

WAZ019-023-024-040-567>569-191700-
CASCADE MOUNTAINS AND COLUMBIA GORGE

CITY           SKY/WX    TMP DP  RH WIND       PRES   REMARKS
STAMPEDE PASS  NOT AVBL
TROUTDALE, OR  CLOUDY    37  35  92 E7        29.61R
THE DALLES, OR MOCLDY    26  24  92 CALM      29.65R FOG
$$

WAZ026-027-041>044-520-521-191700-
EAST SLOPES

CITY           SKY/WX    TMP DP  RH WIND       PRES   REMARKS
OMAK           CLOUDY    33  29  85 SE3       29.56R
WENATCHEE      PTCLDY    23  22  96 CALM      29.58R
ELLENSBURG     CLOUDY    32  29  88 CALM      29.55R FOG
YAKIMA         FOG       31  29  92 CALM      29.59R VSB 1/4
$$

WAZ028-034-035-191700-
COLUMBIA BASIN

CITY           SKY/WX    TMP DP  RH WIND       PRES   REMARKS
EPHRATA        FOG       30  27  88 CALM      29.57R VSB<1/4
MOSES LAKE     FOG       29  28  96 NE5       29.58R VSB<1/4
PASCO          CLOUDY    27  27 100 N9        29.61R
HERMISTON, OR  CLOUDY    32  31  96 CALM      29.60R FOG
$$

WAZ036>038-191700-
NORTHEAST WASHINGTON

CITY           SKY/WX    TMP DP  RH WIND       PRES   REMARKS
SPOKANE GEIGER CLOUDY    36  31  82 S8        29.55R
SPOKANE FELTS  CLOUDY    36  35  96 CALM      29.58R
FAIRCHILD AFB  CLOUDY    34  34  99 S6        29.55R
COEURDALENE,ID CLOUDY    37  35  92 S7        29.58R
DEER PARK      MOCLDY    31  30  96 CALM      29.57R
$$

WAZ029>033-191700-
SOUTHEAST WASHINGTON

CITY           SKY/WX    TMP DP  RH WIND       PRES   REMARKS
PULLMAN        LGT RAIN  36  33  89 SE7       29.61R
LEWISTON, ID   LGT RAIN  38  34  85 CALM      29.63R
WALLA WALLA    CLOUDY    39  32  76 CALM      29.58R
PENDLETON, OR  CLOUDY    40  34  79 CALM      29.58R
$$



USA.gov is the U.S. government's official web portal to all federal, state and local government web resources and services.